Regional Weather Roundup
Issued by NWS Northern Indiana

Home | Current Version | Previous Version | Text Only | Print | Product List | Glossary Off
Versions: 1 2 3 4 5 6 7 8 9 10 11 12 13 14 15 16 17 18 19 20 21 22 23 24 25 26 27 28 29 30 31 32 33 34 35 36 37 38 39 40 41 42 43 44 45 46 47 48 49 50

000
ASUS43 KIWX 161600
RWRIWX

KIWX WEATHER ROUNDUP
NATIONAL WEATHER SERVICE NORTHERN INDIANA
1100 AM EST MON JAN 16 2017

NOTE: "FAIR" INDICATES FEW OR NO CLOUDS BELOW 12,000 FEET WITH NO
SIGNIFICANT WEATHER AND/OR OBSTRUCTIONS TO VISIBILITY.

* THESE STATIONS ARE NOT UNDER NWS QUALITY CONTROL. THEY ALSO MAY NOT
  REPORT WEATHER SUCH AS PRECIPITATION OR FOG.

INZ001>027-161700-
NORTHERN INDIANA

CITY           SKY/WX    TMP DP  RH WIND       PRES   REMARKS
GARY*          FOG       34  34 100 VRB5      30.25F VSB 1   WCI  30
SOUTH BEND     MIX PCPN  32  30  92 E5        30.28S FOG     WCI  27
ELKHART*       LGT RAIN  32  30  93 E6        30.28S FOG     WCI  26
GOSHEN         FOG       34  31  88 E6        30.28S VSB 1   WCI  29
FORT WAYNE     LGT RAIN  34  31  88 E8        30.29S FOG     WCI  27

$$
INZ028>050-161700-
CENTRAL INDIANA

CITY           SKY/WX    TMP DP  RH WIND       PRES   REMARKS
LAFAYETTE      CLOUDY    38  37  97 E6        30.24S FOG
KOKOMO*        CLOUDY    35  35 100 SE8       30.25F FOG     WCI  29
MUNCIE*        CLOUDY    41  38  89 SE5       30.26S FOG
INDIANAPOLIS   CLOUDY    41  39  93 SE8       30.24F FOG

$$
MIZ043>046-050>051-056>058-064>065-071>073-077>080-161700-
SOUTHWEST LOWER MICHIGAN

CITY           SKY/WX    TMP DP  RH WIND       PRES   REMARKS
BATTLE CREEK   FRZ RAIN  31  27  85 SE3       30.30S
BENTON HARBOR  CLOUDY    34  29  82 E6        30.28S HAZE    WCI  29
COLDWATER*     CLOUDY    34  30  85 E3        30.30S HAZE
HILLSDALE*     CLOUDY    32  30  93 E6        30.29S FOG     WCI  26
HOLLAND        FRZ RAIN  31  28  89 SE7       30.29F WCI  24
GRAND RAPIDS   FRZ RAIN  30  24  78 SE3       30.30S
KALAMAZOO      FRZ DRZL  33  27  78 CALM      30.31R
STURGIS*       CLOUDY    33  29  86 E7        30.28F WCI  27
THREE RIVERS*  CLOUDY    32  28  85 E5        30.29F FOG     WCI  28

$$
OHZ001>008-015>018-024>025-161700-
NORTHWEST OHIO

CITY           SKY/WX    TMP DP  RH WIND       PRES   REMARKS
DEFIANCE       CLOUDY    34  29  82 E6        30.31S HAZE    WCI  29
FINDLAY        CLOUDY    36  30  79 E6        30.30S HAZE
TOLEDO EXPRESS CLOUDY    32  29  88 E6        30.32S FOG     WCI  26
TOLEDO METCALF CLOUDY    34  29  82 CALM      30.34S HAZE
LIMA           LGT RAIN  36  34  92 SE5       30.28S FOG

$$
AND FOR LAKE MICHIGAN COASTAL AND OPEN LAKE BUOY OBSERVATIONS

STATION/POSITION TEMP    WIND        PRES    VSBY  WAVE
                 AIR SEA DIR/SP/G                  HT/PER
                 (F)     (DEG/KT/KT) (MB)    (MI)  (FT/S)
CALUMET HARBOR    31      90/  8/ 10 1023.6F
MICHIGAN CITY     32      80/  5/  6   N/A
BURNS HARBOR      32      80/  8/  9 1024.7F
SAINT JOSEPH      33     100/  2/  4 1026.1

$$
&&




USA.gov is the U.S. government's official web portal to all federal, state and local government web resources and services.